User: anonymous   Login
Location: Unspecified
(0.0000°N, 0.0000°E)
Time: 19:04:38
(UTC+00:00)
Language:

Uosat F - Orbit

View from above orbital plane
View from above orbital plane
View from above satellite
View from above satellite

Ground track
Ground track

The orbit data is extracted from the following two-line orbital elements,

1 21575U 91050B   17084.95406329 +.00000035 +00000-0 +25357-4 0  9997
2 21575 098.7617 099.3569 0007269 179.2712 180.8487 14.40788866349097
Epoch (UTC): 25 March 2017 22:53:51
Eccentricity: 0.0007269
inclination: 98.7617°
perigee height: 751 km
apogee height: 761 km
right ascension of ascending node: 99.3569°
argument of perigee: 179.2712°
revolutions per day: 14.40788866
mean anomaly at epoch: 180.8487°
orbit number at epoch: 34909

The dashed part of the orbit path shows where the satellite is in the earth's shadow,  

DLR